| time (UTC) | temp F | wind direction | speed MPH | gust MPH | rain 1hr in | rain 24hr in | rain mn in | humidity % | barometer mb |
| 20260510165524 | 84 | 111 | 5.0 | 11.0 | 0.00 | 0.00 | 0.00 | 71 | 1015.4 |
| 20260510165004 | 83 | 136 | 5.0 | 12.0 | 0.00 | 0.00 | 0.00 | 73 | 1015.5 |
| 20260510164525 | 83 | 123 | 6.0 | 14.0 | 0.00 | 0.00 | 0.00 | 73 | 1015.6 |
| 20260510164004 | 82 | 113 | 7.0 | 14.0 | 0.00 | 0.00 | 0.00 | 73 | 1015.6 |
| 20260510163504 | 82 | 116 | 7.0 | 14.0 | 0.00 | 0.00 | 0.00 | 72 | 1015.7 |
| 20260510163024 | 82 | 124 | 7.0 | 14.0 | 0.00 | 0.00 | 0.00 | 73 | 1015.6 |
| 20260510162503 | 82 | 123 | 7.0 | 16.0 | 0.00 | 0.00 | 0.00 | 73 | 1015.5 |
| 20260510162025 | 82 | 114 | 7.0 | 16.0 | 0.00 | 0.00 | 0.00 | 74 | 1015.4 |
| 20260510161503 | 82 | 123 | 7.0 | 16.0 | 0.00 | 0.00 | 0.00 | 74 | 1015.4 |
| 20260510161004 | 82 | 135 | 6.0 | 14.0 | 0.00 | 0.00 | 0.00 | 75 | 1015.3 |
| 20260510160503 | 82 | 127 | 6.0 | 12.0 | 0.00 | 0.00 | 0.00 | 75 | 1015.3 |
| 20260510160004 | 82 | 115 | 6.0 | 11.0 | 0.00 | 0.00 | 0.00 | 75 | 1015.3 |
| 20260510155504 | 82 | 120 | 6.0 | 11.0 | 0.00 | 0.00 | 0.00 | 76 | 1015.3 |
| 20260510155004 | 81 | 123 | 6.0 | 13.0 | 0.00 | 0.00 | 0.00 | 77 | 1015.3 |
| 20260510154504 | 81 | 131 | 7.0 | 13.0 | 0.00 | 0.00 | 0.00 | 77 | 1015.2 |
| 20260510154004 | 81 | 128 | 5.0 | 12.0 | 0.00 | 0.00 | 0.00 | 78 | 1015.2 |
| 20260510153503 | 80 | 107 | 5.0 | 12.0 | 0.00 | 0.00 | 0.00 | 77 | 1015.3 |
| 20260510153003 | 80 | 110 | 6.0 | 14.0 | 0.00 | 0.00 | 0.00 | 79 | 1015.3 |
| 20260510152504 | 80 | 125 | 6.0 | 14.0 | 0.00 | 0.00 | 0.00 | 79 | 1015.2 |
| 20260510152024 | 80 | 124 | 5.0 | 12.0 | 0.00 | 0.00 | 0.00 | 78 | 1015.2 |
| 20260510151503 | 80 | 115 | 6.0 | 11.0 | 0.00 | 0.00 | 0.00 | 78 | 1015.3 |
| 20260510151003 | 79 | 116 | 6.0 | 11.0 | 0.00 | 0.00 | 0.00 | 79 | 1015.2 |
| 20260510150503 | 79 | 119 | 5.0 | 12.0 | 0.00 | 0.00 | 0.00 | 80 | 1015.2 |
| 20260510150004 | 78 | 129 | 5.0 | 12.0 | 0.00 | 0.00 | 0.00 | 81 | 1015.2 |
| 20260510145503 | 78 | 129 | 5.0 | 12.0 | 0.00 | 0.00 | 0.00 | 81 | 1015.1 |
| 20260510145004 | 78 | 123 | 4.0 | 10.0 | 0.00 | 0.00 | 0.00 | 83 | 1015.0 |
| 20260510144503 | 77 | 119 | 4.0 | 10.0 | 0.00 | 0.00 | 0.00 | 84 | 1014.9 |
| 20260510144003 | 76 | 127 | 2.0 | 6.0 | 0.00 | 0.00 | 0.00 | 85 | 1014.9 |
| 20260510143504 | 76 | 131 | 4.0 | 10.0 | 0.00 | 0.00 | 0.00 | 86 | 1014.9 |
| 20260510143024 | 75 | 146 | 5.0 | 10.0 | 0.00 | 0.00 | 0.00 | 87 | 1014.9 |
| 20260510142503 | 75 | 164 | 5.0 | 8.0 | 0.00 | 0.00 | 0.00 | 89 | 1014.8 |
| 20260510142003 | 74 | 169 | 4.0 | 8.0 | 0.00 | 0.00 | 0.00 | 90 | 1014.8 |
| 20260510141524 | 74 | 157 | 4.0 | 8.0 | 0.00 | 0.00 | 0.00 | 91 | 1014.8 |
| 20260510141003 | 73 | 131 | 2.0 | 7.0 | 0.00 | 0.00 | 0.00 | 92 | 1014.6 |
| 20260510140503 | 73 | 129 | 4.0 | 8.0 | 0.00 | 0.00 | 0.00 | 93 | 1014.6 |
| 20260510140003 | 72 | 130 | 4.0 | 10.0 | 0.00 | 0.00 | 0.00 | 93 | 1014.4 |
| 20260510135503 | 72 | 140 | 4.0 | 10.0 | 0.00 | 0.00 | 0.00 | 93 | 1014.3 |
| 20260510135003 | 72 | 144 | 4.0 | 7.0 | 0.00 | 0.00 | 0.00 | 94 | 1014.3 |
| 20260510134503 | 71 | 144 | 2.0 | 7.0 | 0.00 | 0.00 | 0.00 | 94 | 1014.4 |
| 20260510134003 | 71 | 147 | 4.0 | 7.0 | 0.00 | 0.00 | 0.00 | 94 | 1014.3 |
| 20260510133524 | 70 | 150 | 4.0 | 7.0 | 0.00 | 0.00 | 0.00 | 94 | 1014.2 |
| 20260510133003 | 70 | 155 | 4.0 | 7.0 | 0.00 | 0.00 | 0.00 | 94 | 1014.1 |
| 20260510132503 | 69 | 158 | 4.0 | 6.0 | 0.00 | 0.00 | 0.00 | 94 | 1014.0 |
| 20260510132003 | 69 | 158 | 2.0 | 5.0 | 0.00 | 0.00 | 0.00 | 94 | 1013.8 |
| 20260510131503 | 68 | 159 | 4.0 | 6.0 | 0.00 | 0.00 | 0.00 | 94 | 1013.6 |
| 20260510131003 | 68 | 162 | 4.0 | 6.0 | 0.00 | 0.00 | 0.00 | 94 | 1013.5 |
| 20260510130503 | 67 | 166 | 2.0 | 6.0 | 0.00 | 0.00 | 0.00 | 94 | 1013.5 |
| 20260510130003 | 66 | 168 | 2.0 | 5.0 | 0.00 | 0.00 | 0.00 | 93 | 1013.4 |
| 20260510125503 | 66 | 168 | 1.0 | 5.0 | 0.00 | 0.00 | 0.00 | 93 | 1013.4 |
| 20260510125003 | 66 | 168 | 1.0 | 4.0 | 0.00 | 0.00 | 0.00 | 93 | 1013.4 |
| 20260510124503 | 65 | 168 | 1.0 | 4.0 | 0.00 | 0.00 | 0.00 | 92 | 1013.3 |
| 20260510124004 | 65 | 168 | 1.0 | 4.0 | 0.00 | 0.00 | 0.00 | 92 | 1013.3 |
| 20260510123503 | 65 | 168 | 1.0 | 2.0 | 0.00 | 0.00 | 0.00 | 92 | 1013.2 |
| 20260510123003 | 65 | 168 | 1.0 | 2.0 | 0.00 | 0.00 | 0.00 | 91 | 1013.1 |
| 20260510122503 | 65 | 168 | 1.0 | 2.0 | 0.00 | 0.00 | 0.00 | 91 | 1013.1 |
| 20260510122003 | 65 | 168 | 1.0 | 4.0 | 0.00 | 0.00 | 0.00 | 91 | 1012.9 |
| 20260510121503 | 65 | 168 | 1.0 | 4.0 | 0.00 | 0.01 | 0.00 | 91 | 1012.9 |
| 20260510121003 | 65 | 168 | 0.0 | 2.0 | 0.00 | 0.01 | 0.00 | 91 | 1012.9 |
| 20260510120503 | 65 | 168 | 1.0 | 4.0 | 0.00 | 0.01 | 0.00 | 91 | 1012.7 |
| 20260510120004 | 65 | 168 | 1.0 | 4.0 | 0.00 | 0.01 | 0.00 | 91 | 1012.7 |
| 20260510115504 | 66 | 168 | 0.0 | 2.0 | 0.00 | 0.01 | 0.00 | 91 | 1012.7 |
| 20260510115003 | 66 | 0 | 0.0 | 0.0 | 0.00 | 0.01 | 0.00 | 91 | 1012.7 |
| 20260510114503 | 66 | 0 | 0.0 | 0.0 | 0.00 | 0.01 | 0.00 | 91 | 1012.7 |
| 20260510114003 | 66 | 168 | 0.0 | 1.0 | 0.00 | 0.01 | 0.00 | 91 | 1012.7 |
| 20260510113503 | 66 | 168 | 0.0 | 1.0 | 0.00 | 0.01 | 0.00 | 92 | 1012.6 |
| 20260510113003 | 66 | 0 | 0.0 | 0.0 | 0.00 | 0.01 | 0.00 | 92 | 1012.6 |
| 20260510112503 | 66 | 168 | 0.0 | 1.0 | 0.00 | 0.01 | 0.00 | 92 | 1012.6 |
| 20260510112003 | 67 | 168 | 0.0 | 2.0 | 0.00 | 0.01 | 0.00 | 92 | 1012.4 |
| 20260510111503 | 67 | 168 | 0.0 | 2.0 | 0.00 | 0.01 | 0.00 | 92 | 1012.4 |
| 20260510111003 | 67 | 168 | 1.0 | 4.0 | 0.00 | 0.01 | 0.00 | 92 | 1012.3 |
| 20260510110503 | 67 | 168 | 1.0 | 4.0 | 0.00 | 0.01 | 0.00 | 92 | 1012.2 |
| 20260510110003 | 67 | 168 | 1.0 | 4.0 | 0.00 | 0.01 | 0.00 | 92 | 1012.1 |
| 20260510105503 | 67 | 168 | 2.0 | 5.0 | 0.00 | 0.01 | 0.00 | 92 | 1012.1 |
| 20260510105003 | 67 | 168 | 2.0 | 5.0 | 0.00 | 0.01 | 0.00 | 92 | 1012.1 |
| 20260510104503 | 67 | 168 | 1.0 | 4.0 | 0.00 | 0.01 | 0.00 | 92 | 1012.0 |
| 20260510104003 | 67 | 168 | 1.0 | 2.0 | 0.00 | 0.01 | 0.00 | 92 | 1012.0 |
| 20260510103503 | 67 | 168 | 1.0 | 2.0 | 0.00 | 0.01 | 0.00 | 92 | 1012.0 |
| 20260510103003 | 67 | 168 | 1.0 | 4.0 | 0.00 | 0.01 | 0.00 | 92 | 1012.1 |
| 20260510102503 | 67 | 168 | 1.0 | 4.0 | 0.00 | 0.01 | 0.00 | 92 | 1012.1 |
| 20260510102003 | 67 | 168 | 2.0 | 5.0 | 0.00 | 0.01 | 0.00 | 92 | 1012.0 |
| 20260510101503 | 67 | 168 | 2.0 | 5.0 | 0.00 | 0.01 | 0.00 | 92 | 1012.1 |
| 20260510101003 | 66 | 168 | 2.0 | 6.0 | 0.00 | 0.01 | 0.00 | 92 | 1012.0 |
| 20260510100503 | 66 | 167 | 2.0 | 6.0 | 0.00 | 0.01 | 0.00 | 91 | 1012.0 |
| 20260510100003 | 66 | 167 | 4.0 | 7.0 | 0.00 | 0.01 | 0.00 | 91 | 1011.9 |
| 20260510095524 | 66 | 158 | 4.0 | 7.0 | 0.00 | 0.01 | 0.00 | 91 | 1012.0 |
| 20260510095003 | 65 | 130 | 4.0 | 6.0 | 0.00 | 0.01 | 0.00 | 90 | 1012.1 |
| 20260510094524 | 65 | 113 | 2.0 | 5.0 | 0.00 | 0.01 | 0.00 | 89 | 1012.1 |
| 20260510094024 | 65 | 113 | 2.0 | 5.0 | 0.00 | 0.01 | 0.00 | 89 | 1012.1 |
| 20260510093503 | 65 | 113 | 2.0 | 5.0 | 0.00 | 0.01 | 0.00 | 88 | 1012.2 |
| 20260510093003 | 65 | 113 | 2.0 | 5.0 | 0.00 | 0.01 | 0.00 | 88 | 1012.2 |
| 20260510092524 | 65 | 113 | 2.0 | 4.0 | 0.00 | 0.01 | 0.00 | 88 | 1012.1 |
| 20260510092003 | 65 | 113 | 2.0 | 4.0 | 0.00 | 0.01 | 0.00 | 88 | 1012.1 |
| 20260510091503 | 65 | 113 | 2.0 | 4.0 | 0.00 | 0.02 | 0.00 | 88 | 1012.0 |
| 20260510091003 | 65 | 113 | 1.0 | 2.0 | 0.00 | 0.02 | 0.00 | 88 | 1012.0 |
| 20260510090503 | 66 | 113 | 1.0 | 2.0 | 0.00 | 0.02 | 0.00 | 88 | 1012.1 |
| 20260510090003 | 66 | 113 | 0.0 | 2.0 | 0.00 | 0.02 | 0.00 | 88 | 1012.1 |
| 20260510085504 | 66 | 0 | 0.0 | 0.0 | 0.00 | 0.02 | 0.00 | 88 | 1012.1 |
| 20260510085004 | 66 | 113 | 0.0 | 1.0 | 0.00 | 0.02 | 0.00 | 88 | 1012.1 |
| 20260510084503 | 66 | 113 | 0.0 | 1.0 | 0.00 | 0.03 | 0.00 | 88 | 1012.0 |
| 20260510084004 | 66 | 113 | 0.0 | 1.0 | 0.00 | 0.03 | 0.00 | 88 | 1012.0 |
| 20260510083525 | 66 | 113 | 0.0 | 1.0 | 0.00 | 0.03 | 0.00 | 88 | 1012.0 |
| 20260510083004 | 66 | 113 | 0.0 | 1.0 | 0.00 | 0.03 | 0.00 | 88 | 1012.1 |
| 20260510082504 | 67 | 0 | 0.0 | 0.0 | 0.00 | 0.03 | 0.00 | 88 | 1012.1 |
| 20260510082004 | 67 | 0 | 0.0 | 0.0 | 0.00 | 0.03 | 0.00 | 88 | 1012.1 |
| 20260510081525 | 67 | 0 | 0.0 | 0.0 | 0.00 | 0.03 | 0.00 | 88 | 1012.2 |
| 20260510081005 | 67 | 0 | 0.0 | 0.0 | 0.00 | 0.03 | 0.00 | 88 | 1012.3 |
| 20260510080504 | 67 | 113 | 0.0 | 2.0 | 0.00 | 0.03 | 0.00 | 87 | 1012.2 |
| 20260510080004 | 67 | 113 | 0.0 | 2.0 | 0.00 | 0.03 | 0.00 | 87 | 1012.0 |
| 20260510075525 | 67 | 113 | 1.0 | 4.0 | 0.00 | 0.03 | 0.00 | 87 | 1011.9 |
| 20260510075004 | 67 | 113 | 1.0 | 4.0 | 0.00 | 0.03 | 0.00 | 87 | 1012.0 |
| 20260510074504 | 67 | 113 | 0.0 | 1.0 | 0.00 | 0.03 | 0.00 | 87 | 1012.0 |
| 20260510074025 | 68 | 113 | 0.0 | 2.0 | 0.00 | 0.03 | 0.00 | 87 | 1012.1 |
| 20260510073504 | 68 | 113 | 0.0 | 2.0 | 0.00 | 0.03 | 0.00 | 87 | 1012.2 |
| 20260510073004 | 68 | 113 | 0.0 | 1.0 | 0.00 | 0.03 | 0.00 | 87 | 1012.3 |
| 20260510072504 | 68 | 0 | 0.0 | 0.0 | 0.00 | 0.03 | 0.00 | 87 | 1012.2 |
| 20260510072004 | 68 | 0 | 0.0 | 0.0 | 0.00 | 0.03 | 0.00 | 86 | 1012.3 |
| 20260510071504 | 68 | 0 | 0.0 | 0.0 | 0.00 | 0.03 | 0.00 | 86 | 1012.3 |
| 20260510071004 | 68 | 113 | 0.0 | 2.0 | 0.00 | 0.03 | 0.00 | 86 | 1012.2 |
| 20260510070524 | 68 | 113 | 0.0 | 2.0 | 0.00 | 0.03 | 0.00 | 86 | 1012.2 |
| 20260510070004 | 68 | 113 | 1.0 | 2.0 | 0.00 | 0.03 | 0.00 | 86 | 1012.1 |
| 20260510065504 | 68 | 113 | 1.0 | 2.0 | 0.00 | 0.03 | 0.00 | 86 | 1012.0 |
| 20260510065004 | 69 | 113 | 0.0 | 2.0 | 0.00 | 0.03 | 0.00 | 86 | 1012.1 |
| 20260510064504 | 69 | 113 | 0.0 | 1.0 | 0.00 | 0.03 | 0.00 | 86 | 1012.1 |
| 20260510064004 | 69 | 0 | 0.0 | 0.0 | 0.00 | 0.03 | 0.00 | 86 | 1012.0 |
| 20260510063504 | 69 | 0 | 0.0 | 0.0 | 0.00 | 0.03 | 0.00 | 86 | 1012.1 |
| 20260510063005 | 69 | 113 | 0.0 | 1.0 | 0.00 | 0.03 | 0.00 | 86 | 1012.1 |
| 20260510062504 | 69 | 113 | 0.0 | 2.0 | 0.00 | 0.03 | 0.00 | 86 | 1012.0 |
| 20260510062004 | 69 | 113 | 1.0 | 2.0 | 0.00 | 0.03 | 0.00 | 85 | 1012.0 |
| 20260510061504 | 70 | 113 | 1.0 | 2.0 | 0.00 | 0.03 | 0.00 | 85 | 1011.9 |
| 20260510061004 | 70 | 113 | 0.0 | 1.0 | 0.00 | 0.03 | 0.00 | 85 | 1012.0 |
| 20260510060504 | 70 | 113 | 0.0 | 2.0 | 0.00 | 0.03 | 0.00 | 85 | 1011.9 |
| 20260510060004 | 70 | 113 | 0.0 | 2.0 | 0.00 | 0.03 | 0.00 | 85 | 1011.9 |
| 20260510055525 | 70 | 113 | 0.0 | 2.0 | 0.00 | 0.03 | 0.00 | 84 | 1012.0 |
| 20260510055004 | 70 | 0 | 0.0 | 0.0 | 0.00 | 0.03 | 0.00 | 84 | 1011.9 |
| 20260510054504 | 71 | 0 | 0.0 | 0.0 | 0.00 | 0.03 | 0.00 | 84 | 1011.9 |
| 20260510054004 | 71 | 0 | 0.0 | 0.0 | 0.00 | 0.03 | 0.00 | 85 | 1011.8 |
| 20260510053503 | 71 | 0 | 0.0 | 0.0 | 0.00 | 0.03 | 0.00 | 84 | 1011.9 |
| 20260510053004 | 71 | 0 | 0.0 | 0.0 | 0.00 | 0.03 | 0.00 | 84 | 1012.0 |
| 20260510052504 | 71 | 113 | 0.0 | 2.0 | 0.00 | 0.03 | 0.00 | 84 | 1011.9 |
| 20260510052003 | 71 | 113 | 1.0 | 2.0 | 0.00 | 0.03 | 0.00 | 83 | 1011.8 |
| 20260510051524 | 72 | 113 | 1.0 | 4.0 | 0.00 | 0.03 | 0.00 | 84 | 1011.9 |
| 20260510051003 | 72 | 113 | 0.0 | 4.0 | 0.00 | 0.03 | 0.00 | 83 | 1011.8 |
| 20260510050504 | 72 | 113 | 0.0 | 1.0 | 0.00 | 0.03 | 0.00 | 83 | 1011.8 |
| 20260510050004 | 72 | 0 | 0.0 | 0.0 | 0.00 | 0.03 | 0.00 | 83 | 1011.8 |
| 20260510045503 | 72 | 0 | 0.0 | 0.0 | 0.00 | 0.03 | 0.03 | 83 | 1011.8 |
| 20260510045004 | 73 | 0 | 0.0 | 0.0 | 0.00 | 0.03 | 0.03 | 83 | 1011.8 |
| 20260510044504 | 73 | 113 | 0.0 | 1.0 | 0.00 | 0.03 | 0.03 | 82 | 1011.7 |
| 20260510044004 | 73 | 113 | 0.0 | 1.0 | 0.00 | 0.03 | 0.03 | 82 | 1011.7 |
| 20260510043504 | 73 | 0 | 0.0 | 0.0 | 0.00 | 0.03 | 0.03 | 82 | 1011.8 |
| 20260510043005 | 74 | 113 | 0.0 | 1.0 | 0.00 | 0.03 | 0.03 | 81 | 1011.6 |
| 20260510042504 | 74 | 113 | 0.0 | 1.0 | 0.00 | 0.03 | 0.03 | 81 | 1011.7 |
| 20260510042004 | 74 | 113 | 0.0 | 1.0 | 0.00 | 0.03 | 0.03 | 81 | 1011.6 |
| 20260510041503 | 74 | 113 | 0.0 | 1.0 | 0.00 | 0.03 | 0.03 | 81 | 1011.6 |
| 20260510041003 | 74 | 113 | 0.0 | 1.0 | 0.00 | 0.03 | 0.03 | 81 | 1011.5 |
| 20260510040503 | 75 | 113 | 0.0 | 1.0 | 0.00 | 0.03 | 0.03 | 81 | 1011.5 |
| 20260510040024 | 75 | 113 | 0.0 | 1.0 | 0.00 | 0.03 | 0.03 | 80 | 1011.5 |
| 20260510035503 | 75 | 113 | 0.0 | 1.0 | 0.00 | 0.03 | 0.03 | 80 | 1011.5 |
| 20260510035003 | 76 | 113 | 0.0 | 1.0 | 0.00 | 0.03 | 0.03 | 80 | 1011.4 |
| 20260510034504 | 76 | 113 | 0.0 | 1.0 | 0.00 | 0.03 | 0.03 | 80 | 1011.5 |
| 20260510034004 | 76 | 113 | 0.0 | 1.0 | 0.00 | 0.03 | 0.03 | 79 | 1011.4 |
| 20260510033503 | 76 | 113 | 0.0 | 1.0 | 0.00 | 0.03 | 0.03 | 79 | 1011.3 |
| 20260510033024 | 77 | 0 | 0.0 | 0.0 | 0.00 | 0.03 | 0.03 | 79 | 1011.3 |
| 20260510032524 | 77 | 0 | 0.0 | 0.0 | 0.00 | 0.03 | 0.03 | 79 | 1011.2 |
| 20260510032003 | 77 | 113 | 0.0 | 1.0 | 0.00 | 0.03 | 0.03 | 79 | 1011.1 |
| 20260510031503 | 77 | 113 | 1.0 | 2.0 | 0.00 | 0.03 | 0.03 | 79 | 1011.1 |
| 20260510031004 | 78 | 113 | 1.0 | 2.0 | 0.00 | 0.03 | 0.03 | 79 | 1011.0 |
| 20260510030504 | 78 | 113 | 1.0 | 2.0 | 0.00 | 0.03 | 0.03 | 79 | 1010.9 |
| 20260510030025 | 78 | 113 | 1.0 | 4.0 | 0.00 | 0.03 | 0.03 | 79 | 1010.8 |
| 20260510025503 | 78 | 113 | 2.0 | 4.0 | 0.00 | 0.03 | 0.03 | 78 | 1010.7 |
| 20260510025025 | 78 | 113 | 2.0 | 4.0 | 0.00 | 0.03 | 0.03 | 78 | 1010.6 |
| 20260510024504 | 79 | 113 | 2.0 | 5.0 | 0.00 | 0.03 | 0.03 | 78 | 1010.5 |
| 20260510024004 | 79 | 113 | 2.0 | 6.0 | 0.00 | 0.03 | 0.03 | 77 | 1010.5 |
| 20260510023503 | 79 | 113 | 2.0 | 6.0 | 0.00 | 0.03 | 0.03 | 77 | 1010.5 |
| 20260510023004 | 80 | 113 | 2.0 | 4.0 | 0.00 | 0.03 | 0.03 | 77 | 1010.5 |
| 20260510022504 | 80 | 113 | 2.0 | 5.0 | 0.00 | 0.03 | 0.03 | 76 | 1010.5 |
| 20260510022003 | 80 | 113 | 1.0 | 5.0 | 0.00 | 0.03 | 0.03 | 75 | 1010.5 |
| 20260510021503 | 80 | 113 | 2.0 | 5.0 | 0.00 | 0.03 | 0.03 | 75 | 1010.4 |
| 20260510021003 | 81 | 113 | 2.0 | 5.0 | 0.00 | 0.03 | 0.03 | 75 | 1010.3 |
| 20260510020503 | 81 | 113 | 2.0 | 5.0 | 0.00 | 0.03 | 0.03 | 74 | 1010.3 |
| 20260510020004 | 81 | 113 | 2.0 | 4.0 | 0.00 | 0.03 | 0.03 | 73 | 1010.2 |
| 20260510015504 | 81 | 113 | 2.0 | 5.0 | 0.00 | 0.03 | 0.03 | 73 | 1010.2 |
| 20260510015003 | 82 | 113 | 2.0 | 5.0 | 0.00 | 0.03 | 0.03 | 73 | 1010.1 |
| 20260510014504 | 82 | 113 | 2.0 | 5.0 | 0.00 | 0.03 | 0.03 | 72 | 1010.1 |
| 20260510014003 | 82 | 113 | 1.0 | 5.0 | 0.00 | 0.03 | 0.03 | 72 | 1010.1 |
| 20260510013503 | 83 | 113 | 1.0 | 4.0 | 0.00 | 0.03 | 0.03 | 71 | 1010.0 |
| 20260510013003 | 83 | 113 | 1.0 | 4.0 | 0.00 | 0.03 | 0.03 | 70 | 1009.9 |
| 20260510012504 | 83 | 113 | 1.0 | 2.0 | 0.00 | 0.03 | 0.03 | 70 | 1009.9 |
| 20260510012024 | 84 | 113 | 0.0 | 2.0 | 0.00 | 0.03 | 0.03 | 69 | 1009.8 |
| 20260510011503 | 84 | 113 | 1.0 | 4.0 | 0.00 | 0.03 | 0.03 | 69 | 1009.8 |
| 20260510011003 | 84 | 113 | 1.0 | 4.0 | 0.00 | 0.03 | 0.03 | 68 | 1009.7 |
| 20260510010524 | 84 | 113 | 2.0 | 5.0 | 0.00 | 0.03 | 0.03 | 68 | 1009.7 |
| 20260510010004 | 85 | 113 | 2.0 | 5.0 | 0.00 | 0.03 | 0.03 | 67 | 1009.6 |
| 20260510005503 | 85 | 113 | 2.0 | 6.0 | 0.00 | 0.03 | 0.03 | 67 | 1009.7 |
| 20260510005004 | 85 | 113 | 2.0 | 6.0 | 0.00 | 0.03 | 0.03 | 67 | 1009.6 |
| 20260510004524 | 85 | 114 | 4.0 | 6.0 | 0.00 | 0.03 | 0.03 | 66 | 1009.6 |
| 20260510004004 | 86 | 114 | 4.0 | 8.0 | 0.00 | 0.03 | 0.03 | 66 | 1009.6 |
| 20260510003503 | 86 | 114 | 2.0 | 8.0 | 0.00 | 0.03 | 0.03 | 66 | 1009.5 |
| 20260510003004 | 86 | 114 | 4.0 | 6.0 | 0.00 | 0.03 | 0.03 | 65 | 1009.4 |
| 20260510002503 | 86 | 114 | 4.0 | 10.0 | 0.00 | 0.03 | 0.03 | 64 | 1009.4 |
| 20260510002003 | 86 | 117 | 5.0 | 10.0 | 0.00 | 0.03 | 0.03 | 64 | 1009.4 |
| 20260510001524 | 86 | 121 | 4.0 | 10.0 | 0.00 | 0.03 | 0.03 | 63 | 1009.4 |
| 20260510001003 | 86 | 123 | 4.0 | 10.0 | 0.00 | 0.03 | 0.03 | 62 | 1009.3 |
| 20260510000503 | 87 | 122 | 4.0 | 8.0 | 0.00 | 0.03 | 0.03 | 61 | 1009.2 |
| 20260510000024 | 87 | 121 | 4.0 | 8.0 | 0.00 | 0.03 | 0.03 | 60 | 1009.2 |
| 20260509235503 | 87 | 121 | 4.0 | 8.0 | 0.00 | 0.03 | 0.03 | 58 | 1009.2 |
| 20260509235003 | 87 | 120 | 4.0 | 6.0 | 0.00 | 0.03 | 0.03 | 57 | 1009.1 |
| 20260509234503 | 88 | 118 | 5.0 | 8.0 | 0.00 | 0.03 | 0.03 | 57 | 1009.1 |
| 20260509234003 | 88 | 117 | 5.0 | 8.0 | 0.00 | 0.03 | 0.03 | 56 | 1009.0 |
| 20260509233504 | 88 | 115 | 4.0 | 8.0 | 0.00 | 0.03 | 0.03 | 55 | 1009.0 |
| 20260509233003 | 88 | 126 | 4.0 | 8.0 | 0.00 | 0.03 | 0.03 | 53 | 1009.0 |
| 20260509232525 | 88 | 137 | 4.0 | 8.0 | 0.00 | 0.03 | 0.03 | 52 | 1009.1 |
| 20260509232004 | 89 | 144 | 4.0 | 7.0 | 0.00 | 0.03 | 0.03 | 51 | 1009.0 |
| 20260509231524 | 89 | 149 | 2.0 | 6.0 | 0.00 | 0.03 | 0.03 | 49 | 1009.0 |
| 20260509231003 | 89 | 155 | 2.0 | 6.0 | 0.00 | 0.03 | 0.03 | 46 | 1009.0 |
| 20260509230503 | 89 | 152 | 4.0 | 7.0 | 0.00 | 0.03 | 0.03 | 45 | 1009.1 |
| 20260509230024 | 89 | 138 | 4.0 | 8.0 | 0.00 | 0.03 | 0.03 | 44 | 1009.1 |
| 20260509225503 | 90 | 119 | 5.0 | 8.0 | 0.00 | 0.03 | 0.03 | 49 | 1009.1 |
| 20260509225003 | 90 | 111 | 4.0 | 12.0 | 0.00 | 0.03 | 0.03 | 51 | 1009.1 |
| 20260509224503 | 90 | 109 | 5.0 | 12.0 | 0.00 | 0.03 | 0.03 | 47 | 1009.0 |
| 20260509224004 | 90 | 109 | 6.0 | 11.0 | 0.00 | 0.03 | 0.03 | 47 | 1009.0 |
| 20260509223503 | 90 | 107 | 5.0 | 11.0 | 0.00 | 0.03 | 0.03 | 48 | 1009.0 |
| 20260509223024 | 90 | 125 | 5.0 | 11.0 | 0.00 | 0.03 | 0.03 | 52 | 1009.0 |
| 20260509222503 | 90 | 168 | 4.0 | 7.0 | 0.00 | 0.03 | 0.03 | 51 | 1009.0 |
| 20260509222004 | 90 | 187 | 2.0 | 6.0 | 0.00 | 0.03 | 0.03 | 52 | 1008.9 |
| 20260509221503 | 90 | 190 | 4.0 | 7.0 | 0.00 | 0.03 | 0.03 | 55 | 1008.8 |
| 20260509221003 | 89 | 192 | 4.0 | 7.0 | 0.00 | 0.03 | 0.03 | 54 | 1008.8 |
| 20260509220503 | 89 | 192 | 4.0 | 6.0 | 0.00 | 0.03 | 0.03 | 55 | 1008.7 |
| 20260509220003 | 89 | 191 | 5.0 | 8.0 | 0.00 | 0.03 | 0.03 | 57 | 1008.6 |
| 20260509215503 | 88 | 191 | 4.0 | 8.0 | 0.00 | 0.03 | 0.03 | 57 | 1008.7 |
| 20260509215024 | 88 | 191 | 2.0 | 7.0 | 0.00 | 0.03 | 0.03 | 55 | 1008.8 |
| 20260509214503 | 87 | 191 | 2.0 | 5.0 | 0.00 | 0.03 | 0.03 | 55 | 1008.9 |
| 20260509214003 | 86 | 195 | 4.0 | 12.0 | 0.00 | 0.03 | 0.03 | 57 | 1008.9 |
| 20260509213503 | 86 | 180 | 6.0 | 16.0 | 0.00 | 0.03 | 0.03 | 57 | 1009.0 |
| 20260509213003 | 85 | 153 | 6.0 | 16.0 | 0.00 | 0.03 | 0.03 | 57 | 1009.2 |
| 20260509212503 | 84 | 140 | 6.0 | 11.0 | 0.00 | 0.03 | 0.03 | 60 | 1009.2 |
| 20260509212003 | 83 | 148 | 7.0 | 17.0 | 0.00 | 0.03 | 0.03 | 57 | 1009.3 |
| 20260509211504 | 82 | 147 | 10.0 | 23.0 | 0.00 | 0.03 | 0.03 | 59 | 1009.5 |
| 20260509211024 | 81 | 149 | 11.0 | 23.0 | 0.00 | 0.03 | 0.03 | 60 | 1009.8 |
| 20260509210524 | 79 | 140 | 12.0 | 23.0 | 0.00 | 0.03 | 0.03 | 61 | 1009.8 |
| 20260509210003 | 78 | 127 | 12.0 | 23.0 | 0.00 | 0.03 | 0.03 | 57 | 1010.0 |
| 20260509205503 | 78 | 122 | 12.0 | 26.0 | 0.00 | 0.03 | 0.03 | 57 | 1009.9 |
| 20260509205004 | 78 | 114 | 12.0 | 28.0 | 0.00 | 0.03 | 0.03 | 55 | 1009.8 |
| 20260509204504 | 79 | 104 | 13.0 | 30.0 | 0.00 | 0.03 | 0.03 | 57 | 1010.0 |
| 20260509204025 | 82 | 94 | 12.0 | 36.0 | 0.00 | 0.03 | 0.03 | 53 | 1010.0 |
| 20260509203504 | 86 | 86 | 10.0 | 36.0 | 0.00 | 0.03 | 0.03 | 47 | 1009.9 |
| 20260509203004 | 90 | 74 | 10.0 | 29.0 | 0.00 | 0.03 | 0.03 | 41 | 1010.0 |
| 20260509202504 | 94 | 27 | 5.0 | 18.0 | 0.00 | 0.03 | 0.03 | 52 | 1010.1 |
| 20260509202004 | 95 | 326 | 4.0 | 18.0 | 0.00 | 0.03 | 0.03 | 46 | 1010.0 |
| 20260509201525 | 95 | 284 | 4.0 | 8.0 | 0.00 | 0.03 | 0.03 | 45 | 1009.7 |
| 20260509201004 | 95 | 253 | 2.0 | 8.0 | 0.00 | 0.03 | 0.03 | 47 | 1009.6 |
| 20260509200504 | 95 | 209 | 2.0 | 8.0 | 0.00 | 0.03 | 0.03 | 50 | 1009.6 |
| 20260509200025 | 95 | 208 | 4.0 | 10.0 | 0.00 | 0.03 | 0.03 | 47 | 1009.8 |
| 20260509195504 | 95 | 197 | 4.0 | 10.0 | 0.00 | 0.03 | 0.03 | 47 | 1009.9 |
| 20260509195004 | 95 | 185 | 2.0 | 7.0 | 0.00 | 0.03 | 0.03 | 50 | 1009.8 |
| 20260509194525 | 95 | 195 | 2.0 | 10.0 | 0.00 | 0.03 | 0.03 | 49 | 1009.9 |
| 20260509194004 | 94 | 217 | 4.0 | 10.0 | 0.00 | 0.03 | 0.03 | 51 | 1009.9 |
| 20260509193525 | 94 | 231 | 4.0 | 7.0 | 0.00 | 0.03 | 0.03 | 51 | 1010.0 |
| 20260509193004 | 94 | 198 | 4.0 | 8.0 | 0.00 | 0.03 | 0.03 | 50 | 1010.1 |
| 20260509192504 | 93 | 171 | 4.0 | 8.0 | 0.00 | 0.03 | 0.03 | 54 | 1010.2 |
| 20260509192004 | 93 | 195 | 4.0 | 7.0 | 0.00 | 0.03 | 0.03 | 58 | 1010.2 |
| 20260509191504 | 92 | 220 | 2.0 | 6.0 | 0.00 | 0.03 | 0.03 | 58 | 1010.2 |
| 20260509191004 | 92 | 236 | 2.0 | 6.0 | 0.00 | 0.03 | 0.03 | 54 | 1010.4 |
| 20260509190503 | 92 | 226 | 2.0 | 7.0 | 0.00 | 0.03 | 0.03 | 56 | 1010.5 |
| 20260509190004 | 92 | 205 | 4.0 | 7.0 | 0.00 | 0.03 | 0.03 | 56 | 1010.5 |
| 20260509185504 | 92 | 187 | 4.0 | 12.0 | 0.00 | 0.03 | 0.03 | 55 | 1010.6 |
| 20260509185004 | 91 | 226 | 4.0 | 12.0 | 0.00 | 0.03 | 0.03 | 56 | 1010.7 |
| 20260509184504 | 91 | 333 | 2.0 | 8.0 | 0.00 | 0.03 | 0.03 | 59 | 1010.8 |
| 20260509184004 | 91 | 253 | 2.0 | 7.0 | 0.00 | 0.03 | 0.03 | 56 | 1010.9 |
| 20260509183504 | 92 | 214 | 4.0 | 8.0 | 0.00 | 0.03 | 0.03 | 59 | 1011.0 |
| 20260509183004 | 91 | 229 | 4.0 | 8.0 | 0.00 | 0.03 | 0.03 | 58 | 1011.1 |
| 20260509182504 | 91 | 236 | 4.0 | 8.0 | 0.00 | 0.03 | 0.03 | 61 | 1011.3 |
| 20260509182004 | 90 | 226 | 4.0 | 8.0 | 0.00 | 0.03 | 0.03 | 62 | 1011.3 |
| 20260509181504 | 90 | 216 | 4.0 | 8.0 | 0.00 | 0.03 | 0.03 | 62 | 1011.3 |
| 20260509181004 | 90 | 198 | 5.0 | 11.0 | 0.00 | 0.03 | 0.03 | 64 | 1011.4 |
| 20260509180504 | 89 | 199 | 5.0 | 11.0 | 0.00 | 0.03 | 0.03 | 63 | 1011.3 |
| 20260509180004 | 89 | 203 | 5.0 | 12.0 | 0.00 | 0.03 | 0.03 | 68 | 1011.4 |
| 20260509175504 | 89 | 206 | 5.0 | 12.0 | 0.00 | 0.03 | 0.03 | 65 | 1011.5 |
| 20260509175003 | 88 | 299 | 2.0 | 8.0 | 0.00 | 0.03 | 0.03 | 70 | 1011.6 |
| 20260509174504 | 88 | 190 | 4.0 | 10.0 | 0.00 | 0.03 | 0.03 | 67 | 1011.8 |
| 20260509174004 | 87 | 170 | 4.0 | 10.0 | 0.00 | 0.03 | 0.03 | 71 | 1011.9 |
| 20260509173504 | 87 | 170 | 2.0 | 10.0 | 0.00 | 0.03 | 0.03 | 73 | 1011.9 |
| 20260509173003 | 86 | 128 | 4.0 | 10.0 | 0.00 | 0.03 | 0.03 | 73 | 1012.0 |
| 20260509172504 | 86 | 120 | 5.0 | 12.0 | 0.00 | 0.03 | 0.03 | 75 | 1012.1 |
| 20260509172003 | 85 | 149 | 5.0 | 12.0 | 0.00 | 0.03 | 0.03 | 76 | 1012.1 |
| 20260509171504 | 84 | 183 | 5.0 | 10.0 | 0.00 | 0.03 | 0.03 | 75 | 1012.0 |
| 20260509171004 | 84 | 168 | 2.0 | 10.0 | 0.00 | 0.03 | 0.03 | 76 | 1012.0 |
| 20260509170504 | 84 | 131 | 4.0 | 8.0 | 0.00 | 0.03 | 0.03 | 77 | 1012.0 |
| 20260509170004 | 83 | 152 | 4.0 | 8.0 | 0.00 | 0.03 | 0.03 | 78 | 1012.0 |